www.pogodaiklimat.ru

Погода и климат >> Архив погоды >> Чили >> Arica


ПОГОДА в Arica

  • Прогноз погоды в Arica
  • Монитор погоды в Arica
  • Климат города

АРХИВ ПОГОДЫ в Arica

Время (UTC), дата Ветер
(напр.,м/с)
 
Видим.   Явления Облачность Т
(С)
Тd
(С)
f
(%)
Тe
(С)
Тes
(С)
Комфортность P
(гПа)
Po
(гПа)
Тmin
(С)
Tmax
(С)
R
(мм)
R24
(мм)
S
(см)
21 4.12 ЮЗ 6 40 км ясно +22.7 +13.3 55 +26 +28 жарко 1012.8 1008.5
00 5.12 Ю 2 40 км 3/0
[Ci fib]
+20.5 +14.5 68 +24 +24 комфорт 1015.0 1010.6 +24.0
03 5.12 СВ 2 40 км 3/0
[Ci fib]
+19.3 +12.6 65 +21 +21 комфорт 1016.0 1011.6
06 5.12 СВ 3 40 км ясно +17.4 +11.3 67 +18 +18 1014.4 1010.0
09 5.12 СВ 4 40 км 5/5 900 м
[Sc]
+17.9 +12.4 70 +18 +18 1013.8 1009.4
12 5.12 В 5 20 км 10/10 1050 м
[Sc]
+20.4 +12.7 61 +22 +22 комфорт 1015.5 1011.1 +16.8
15 5.12 ЮЗ 5 30 км 6/6 1200 м
[Sc]
+22.9 +12.7 53 +26 +30 жарко 1015.4 1011.1
18 5.12 ЮЗ 7 40 км ясно +22.5 +14.0 59 +26 +32 жарко 1013.6 1009.3
21 5.12 Ю 6 40 км ясно +21.9 +13.4 58 +25 +27 комфорт 1013.4 1009.1
00 6.12 ЮЗ 2 40 км ясно +20.3 +14.1 68 +23 +23 комфорт 1015.6 1011.2 +24.2
03 6.12 штиль 0 20 км ясно +19.1 +11.7 62 +20 +20 1017.0 1012.6
06 6.12 В 3 10 км ясно +17.4 +10.6 64 +18 +18 1016.0 1011.6
09 6.12 В 3 10 км ясно +17.2 +10.9 66 +17 +17 1015.6 1011.2
12 6.12 СВ 2 40 км ясно +21.3 +12.0 55 +23 +28 комфорт 1016.7 1012.3 +16.7
15 6.12 ЮЗ 6 40 км ясно +22.6 +13.0 55 +26 +32 жарко 1016.0 1011.7
18 6.12 ЮЗ 6 30 км ясно +22.9 +13.8 56 +26 +34 жарко 1015.3 1011.0
21 6.12 ЮЗ 4 40 км 8/0
[Cs]
+21.9 +13.9 60 +25 +28 комфорт 1015.3 1011.0
00 7.12 штиль 0 40 км 4/0
[Ci fib]
+20.7 +14.4 67 +23 +23 комфорт 1016.7 1012.3 +23.5
03 7.12 ЮВ 2 20 км ясно +20.2 +14.6 70 +23 +23 комфорт 1017.8 1013.4
06 7.12 СВ 2 20 км ясно +18.9 +13.4 70 +21 +21 комфорт 1016.1 1011.7
09 7.12 В 3 20 км ясно +16.5 +11.5 72 +16 +16 1015.4 1011.0
12 7.12 0 20 км ясно +20.5 +13.1 62 1016.6 1012.2 +16.0
15 7.12 ЮЗ 5 30 км ясно +23.0 +12.8 53 +26 +35 жарко 1013.3 1011.9
18 7.12 ЮЗ 7 30 км ясно +22.5 +13.4 56 +25 +32 комфорт 1014.7 1010.4
21 7.12 Ю 5 20 км 3/0
[Ci fib]
+21.8 +14.3 62 +25 +28 комфорт 1014.5 1010.2
00 8.12 ЮЗ 2 30 км ясно +19.9 +15.0 73 +23 +23 комфорт 1016.2 1011.7 +23.7
03 8.12 штиль 0 30 км ясно +19.1 +15.2 78 +20 +20 1018.1 1013.7
06 8.12 СВ 2 40 км ясно +17.8 +12.5 71 +19 +19 1016.4 1012.0 0.0
09 8.12 В 3 40 км ясно +18.0 +11.9 68 +18 +18 1016.0 1011.6
12 8.12 штиль 0 40 км 5/0
[Ci fib]
+21.4 +13.2 60 +24 +29 комфорт 1016.3 1011.9 +17.0
15 8.12 ЮЗ 5 30 км ясно +21.9 +13.4 58 +25 +34 комфорт 1015.4 1011.1
18 8.12 ЮЗ 6 40 км ясно +22.2 +14.4 61 +25 +33 комфорт 1013.8 1009.5
21 8.12 Ю 5 10 км ясно +21.5 +14.5 64 +24 +27 комфорт 1013.6 1009.3
00 9.12 Ю 2 20 км ясно +20.2 +14.2 68 +23 +23 комфорт 1015.2 1010.8 +23.0
03 9.12 З 1 20 км ясно +19.5 +14.2 71 +23 +23 комфорт 1015.6 1011.2
06 9.12 СВ 2 20 км мгла ясно +18.1 +11.9 67 +19 +19 1013.1 1008.7
09 9.12 В 2 20 км ясно +16.5 +10.6 68 +17 +17 1011.9 1007.5
12 9.12 СВ 2 40 км ясно +19.6 +12.9 65 +22 +26 комфорт 1014.1 1009.7 +16.1 0.0
15 9.12 ЮЗ 5 30 км 5/0
[Ci fib]
+22.0 +13.2 57 +25 +33 комфорт 1013.7 1009.3
18 9.12 ЮЗ 6 20 км 5/0
[Ci fib]
+21.8 +13.3 58 +24 +31 комфорт 1012.3 1008.0
21 9.12 ЮЗ 4 30 км 5/0
[Ci fib]
+21.2 +14.0 63 +24 +27 комфорт 1011.8 1007.5
00 10.12 Ю 2 10 км 5/0
[Ci fib]
+19.7 +15.0 74 +22 +22 комфорт 1014.0 1009.6 +22.7
03 10.12 С 2 8000 м мгла 3/0
[Ci fib]
+19.4 +13.0 66 +22 +22 комфорт 1016.1 1011.7
06 10.12 ЮВ 2 10 км 10/0 2000 м
[Ac trans]
+19.8 +13.1 65 +22 +22 комфорт 1014.8 1010.4
09 10.12 Ю 1 10 км 10/0 2000 м
[Ac trans]
+19.7 +13.7 68 +23 +23 комфорт 1013.6 1009.2
12 10.12 штиль 0 30 км 10/10 900 м
[Sc]
+20.4 +13.0 62 +22 +22 комфорт 1014.9 1010.5 +19.0
15 10.12 ЮЗ 4 30 км 10/10 750 м
[Sc]
+21.1 +13.6 62 +24 +24 комфорт 1015.3 1010.9
18 10.12 ЮЗ 6 30 км ясно +23.2 +13.0 53 +26 +35 жарко 1014.1 1009.8
21 10.12 Ю 6 30 км ясно +21.9 +12.3 54 +24 +27 комфорт 1014.3 1010.0
00 11.12 ЮЗ 1 20 км 5/0
[Ac trans]
+20.8 +12.9 61 +24 +24 комфорт 1016.6 1012.2 +24.3
03 11.12 ЮВ 2 20 км 9/0
[Ac trans]
+21.0 +12.0 56 +24 +24 комфорт 1018.4 1014.0
06 11.12 Ю 2 20 км 10/10 1000 м
[Sc]
+20.3 +12.9 62 +23 +23 комфорт 1016.6 1012.2
09 11.12 ЮВ 2 20 км 10/10 900 м
[Sc]
+20.3 +11.1 55 +23 +23 комфорт 1015.9 1011.5
12 11.12 штиль 0 10 км 10/10 1050 м
[Sc]
+22.0 +11.7 52 +24 +24 комфорт 1017.0 1012.6 +20.2
15 11.12 ЮЗ 5 30 км ясно +23.3 +12.3 50 +26 +37 жарко 1016.0 1011.7
18 11.12 ЮЗ 7 20 км ясно +23.5 +12.0 48 +25 +30 комфорт 1014.2 1009.9

 

Местоположение метеостанции Arica (Чили): широта -18.46 долгота -70.16 высота над уровнем моря 58 м.

В архиве по умолчанию представлена погода в Arica за последнюю неделю. Архивные данные за месяц целиком и за предыдущие месяцы, начиная с января 2011 года, Вы можете получить, выбрав интересующий диапазон дат из раскрывающегося списка и нажав кнопку "Ввод!".


*Определитесь, кто Вы:
робот инопланетянин человек

Внимание! Время в таблицах - всемирное. Для получения местного времени необходимо прибавить поправку, которая в Arica равна -4 ч.

Смотрите также архив погоды в соседних городах и на ближайших метеорологических станциях:

Погода в Tacna (Перу) (47 км)
Погода в Ilo (Перу) (151 км)
Погода в Iquique (Чили) (230 км)
Погода в Arequipa (Перу) (280 км)
Погода в La Paz (Боливия) (302 км)
Погода в Ovejuyo (Боливия) (311 км)
Погода в Juliaca (Перу) (331 км)
Погода в Oruro (Боливия) (332 км)
Погода в Cochabamba (Боливия) (437 км)
Погода в Calama (Чили) (464 км)

Пояснения к столбцам:

Ветер - указаны скорость ветра в м/с - средняя за 10 мин, порывы в срок и между сроками (в фигурных скобках) и направление, откуда дует ветер: С - северный, СВ - северо-восточный, В - восточный, ЮВ - юго-восточный, Ю - южный, ЮЗ - юго-западный, З - западный, СЗ - северо-западный.
Видимость - горизонтальная дальность видимости в метрах или километрах. При видимости от 1 до 10 км при отсутствии осадков обычно наблюдается дымка, при ухудшении видимости до 1 км и менее - туман. В сухую погоду видимость может ухудшаться дымом, пылью или мглою.
Явления - указаны атмосферные явления, наблюдавшиеся в срок или в последний час перед сроком; фигурными скобками обозначены явления, наблюдавшиеся между сроками (за 1-3 часа до срока); квадратными скобками обозначены град или гололедные отложения с указанием их диаметра в мм.
Облачность - указаны через наклонную черту общая и нижняя облачность в баллах и высота нижней границы облаков в метрах; квадратными скобками обозначены формы облаков: Ci - перистые, Cs - перисто-слоистые, Cc - перисто-кучевые, Ac - высококучевые, As - высокослоистые, Sc - слоисто-кучевые, Ns - слоисто-дождевые, Cu - кучевые, Cb - кучево-дождевые. Подробнее классификацию облаков см. в Атласе облаков (PDF).
T - Температура воздуха - температура, измеренная на высоте 2 м над землей.
Td - Температура точки росы - температура, при понижении до которой содержащийся в воздухе водяной пар достигнет насыщения.
f - Относительная влажность воздуха - влажноcть воздуха, измеренная на высоте 2 м над землей.
Te - Эффективная температура - температура, которую ощущает одетый по сезону человек в тени. Характеристика душности погоды. При расчете учитывается влияние влажности воздуха и скорости ветра на теплоощущения человека.
Tes - Эффективная температура на солнце - температура, которую ощущает человек, с поправкой на солнечный нагрев. Характеристика знойности погоды. Зависит от высоты солнца над горизонтом, облачности и скорости ветра. Ночью, в пасмурную погоду, а также при ветре 12 м/с и более поправка равна нулю.
P - Атмосферное давление - приведенное к уровню моря атмосферное давление.
Po - Атмосферное давление - измеренное на уровне метеостанции атмосферное давление.
Tmin - Минимальная температура - минимум температуры воздуха на высоте 2 м над землей.
Tmax - Максимальная температура - максимум температуры воздуха на высоте 2 м над землей.
R - Количество осадков - Количество выпавших осадков за период времени, мм. При наведении курсора мыши на число - период времени, за который выпало указанное количество осадков.
R24 - Количество осадков - Количество выпавших осадков за 24 часа, мм.
S - Снежный покров - Высота снежного покрова, см. При наведении курсора мыши на число - состояние снежного покрова и степень покрытия местности в баллах.